Other Public Products
Issued by NWS Grand Forks, ND

Home | Current Version | Previous Version | Graphics & Text | Print | Product List | Glossary On
Versions: 1 2 3 4 5 6 7 8 9 10 11 12 13 14 15 16 17 18 19 20 21 22 23 24 25 26 27 28 29 30 31 32 33 34 35 36 37 38 39 40 41 42 43 44 45 46 47 48 49 50
000
FPUS83 KFGF 291910
OPUFGF
PRAIRIE TO PINES WEATHER ROUNDUP
NATIONAL WEATHER SERVICE EASTERN NORTH DAKOTA/GRAND FORKS ND
200 PM CDT TUE JUL 29 2014

 **SATELLITE DATA USED TO AUGMENT SKY COVER AT AUTOMATED STATIONS**
 *****  WEATHER ACROSS EASTERN NORTH DAKOTA  *****

CITY           SKY/WX    TMP DP  RH WIND       PRES   REMARKS
GRAND FORKS    MOSUNNY   77  56  48 NW3       30.14F
GRAND FORKS AF MOSUNNY   76  56  48 VRB6      30.16F
GRAND CITY NWS   N/A     77 N/A N/A NW6         N/A
BUXTON         NOT AVBL
DEVILS LAKE    MOSUNNY   72  54  53 N9        30.17F
FARGO          MOSUNNY   78  52  40 NW10G18   30.14F
WAHPETON ARPT  PTCLDY    73  48  40 N7        30.16F
$$

 *****  WEATHER ACROSS CENTRAL AND WESTERN NORTH DAKOTA  *****

CITY           SKY/WX    TMP DP  RH WIND       PRES   REMARKS
JAMESTOWN      PTSUNNY   74  52  46 N6        30.18F
BISMARCK       MOSUNNY   79  53  40 CALM      30.20F
MINOT          CLOUDY    75  57  53 NE3       30.18F
MINOT AFB      SUNNY     76  58  53 VRB3      30.17F
GARRISON         N/A     76  57  51 NW3       30.19F
WILLISTON      MOSUNNY   82  51  34 NW8       30.18F
DICKINSON      MOSUNNY   79  53  40 S6        30.19F
HETTINGER      MOSUNNY   79  50  36 W8        30.23S
$$

 *****  OTHER OBSERVATIONS NORTHEAST NORTH DAKOTA  *****

CITY           SKY/WX    TMP DP  RH WIND       PRES   REMARKS
WALHALLA       FAIR      75  54  46 NW3         N/A
LANGDON        FAIR      75  52  43 N6        30.18F
CAVALIER       FAIR      75  54  46 NW6       30.15F
GRAFTON        FAIR      75  54  46 NW8       30.15S
CANDO          FAIR      73  54  49 N8G16     30.19F
FORT TOTTEN    NOT AVBL
ROLLA            N/A     72  54  53 N6        30.21S
RUGBY          MOCLDY    72  59  64 N8        30.18F
 ***** THE ABOVE OBSERVATIONS ARE NON NWS ARE NOT QUALITY
        CONTROLLED AND MAY MIS-REPORT RAIN FOR SNOW...
$$

 *****  OTHER OBSERVATIONS SOUTHEAST NORTH DAKOTA *****

CITY           SKY/WX    TMP DP  RH WIND       PRES   REMARKS
COOPERSTOWN    NOT AVBL
VALLEY CITY    FAIR      73  52  46 N5        30.18F
OAKES          NOT AVBL
GWINNER        PTCLDY    75  52  43 CALM      30.19F
SHEYENNE NWR     N/A     76  53  43 NW7       29.95
BUFFALO        NOT AVBL
WYNDMERE       NOT AVBL
 ***** THE ABOVE OBSERVATIONS ARE NON NWS ARE NOT QUALITY
       CONTROLLED AND MAY MIS-REPORT RAIN FOR SNOW...
$$

  *****  WEATHER ACROSS NORTHERN MINNESOTA  *****

CITY           SKY/WX    TMP DP  RH WIND       PRES   REMARKS
FLAG ISLAND    SUNNY     73  54  49 NW13G20   30.08S
WARROAD        SUNNY     75  57  53 NW8G16    30.11S
ROSEAU         MOSUNNY   75  59  57 NW6       30.11F
HALLOCK        SUNNY     75  54  46 NW7G16    30.14S
THF RVR FALLS  MOSUNNY   73  55  53 W8        30.14F
HALSTAD          N/A     77  48  36 NW5         N/A
FOSSTON        MOSUNNY   73  57  56 NW6       30.14F
BAUDETTE       SUNNY     76  56  49 NW13G20   30.10F
WASKISH        MOSUNNY   75  57  53 NW7       30.10F
CROOKSTON      MOSUNNY   73  55  53 NW12G17   30.15F
$$
  *****  WEATHER ACROSS CENTRAL AND WEST MINNESOTA  *****

CITY           SKY/WX    TMP DP  RH WIND       PRES   REMARKS
BEMIDJI        PTSUNNY   74  55  50 NW9G20    30.12F
PARK RAPIDS    PTSUNNY   74  51  44 NW8G18    30.13F
WADENA         MOSUNNY   73  54  49 W6G17     30.14F
DETROIT LAKES  MOSUNNY   73  54  49 N7        30.17S
MOORHEAD       SUNNY     75  54  46 NW9       30.15F
FERGUS FALLS   SUNNY     73  48  40 NW9       30.15F
ELBOW LAKE     FAIR      70  55  58 NW7       30.16F
MORRIS MN      SUNNY     75  55  50 NW6       30.15F
STAPLES        MOSUNNY   75  52  43 W13       30.13F
WHEATON        SUNNY     72  55  56 W8        30.18F
$$
  *****  WEATHER ELSEWHERE ACROSS MINNESOTA  *****

CITY           SKY/WX    TMP DP  RH WIND       PRES   REMARKS
DULUTH         MOSUNNY   76  55  48 NW14G22   30.05F
INTRNTL FALLS  PTSUNNY   75  56  51 N13       30.05F
ELY            MOSUNNY   70  54  56 N10G24    30.04R
CLOQUET        SUNNY     75  50  41 NW14G21   30.06F
BRAINERD       MOSUNNY   75  54  47 NW13      30.11F
HIBBING        SUNNY     77  54  44 NW10G21   30.06F
ALEXANDRIA     MOSUNNY   73  53  49 NW12      30.17F
SAINT CLOUD    MOSUNNY   77  54  44 NW9       30.11F
MINNEAPOLIS    PTSUNNY   80  54  40 W14       30.09F
$$

  *****  WEATHER ACROSS SOUTH DAKOTA  *****

CITY           SKY/WX    TMP DP  RH WIND       PRES   REMARKS
SIOUX FALLS    PTSUNNY   74  52  46 W5        30.19F
BROOKINGS      NOT AVBL
WATERTOWN      MOSUNNY   72  50  45 NW8       30.19F
HURON          MOSUNNY   75  50  41 VRB5      30.19F
SISSETON         N/A     75  55  49 N9        30.16F
ABERDEEN       PTSUNNY   77  51  40 N7        30.18F
MITCHELL       MOSUNNY   76  54  46 N8        30.20F
PIERRE         MOSUNNY   78  50  37 MISG      30.18F
MOBRIDGE       MOSUNNY   78  55  44 VRB6      30.18F
RAPID CITY     CLOUDY    66  57  72 CALM      30.27S
$$

  *****  SOME WEATHER IN NEARBY STATES *****

CITY           SKY/WX    TMP DP  RH WIND       PRES   REMARKS
GLASGOW MT     SUNNY     87  43  21 VRB7      30.18F
GREAT FALLS MT SUNNY     86  46  24 E8        30.19F
CHEYENNE WY    LGT RAIN  66  57  72 N13G22    30.29F
SCOTTSBLUFF NE MOSUNNY   76  61  59 S7        30.22F
OMAHA NE       PTSUNNY   78  51  38 N13       30.18F
DES MOINES IA  MOSUNNY   75  51  43 N7        30.15F
DAVENPORT IA   MOSUNNY   77  58  51 NW13      30.10S
CHICAGO IL     PTSUNNY   80  51  36 NW12G20   30.01F
EAU CLAIRE WI  LGT RAIN  72  61  68 NW5       30.05F
LA CROSSE WI   MOSUNNY   81  55  40 NW14      30.06S
$$

  *****  SOME NATIONAL WEATHER *****

CITY           SKY/WX    TMP DP  RH WIND       PRES   REMARKS
LA GUARDIA NY  PTSUNNY   76  51  41 NW10      29.87S
RALEIGH NC     MOSUNNY   80  55  42 CALM      29.95S
ATLANTA GA     MOSUNNY   79  58  48 NW12      30.00F
NEW ORLEANS LA PTSUNNY   89  66  46 VRB6      30.05F HX  91
OKLAHOMA CITY  PTSUNNY   89  55  31 SW9       30.16F
ALBUQUERQUE NM MOSUNNY   79  58  48 S8        30.27F
SALT LAKE CITY TSTM      71  60  68 N5        30.20R
LOS ANGELES CA PTSUNNY   74  64  71 W8        30.03F
BOISE ID       MOSUNNY   88  51  28 NW6       30.09F
SEATTLE WA     SUNNY     77  56  48 W6        30.15S
$$

*** WEATHER ACROSS MANITOBA...SASKATCHEWAN AND ONTARIO ***
                ***ONTARIO***

CITY           SKY/WX    TMP DP  RH WIND       PRES   REMARKS
GERALDTON      PTSUNNY   59  48  67 N9        30.00R
THUNDER BAY    PTSUNNY   68  61  77 N7        29.97S
SIOUX LOOKOUT  LGT RAIN  68  57  68 N6        30.04S
TORONTO        CLOUDY    70  50  49 W9        29.92S
BIG TROUT LK   MOSUNNY   68  46  45 NE8       30.08F
PICKLE LAKE    MOSUNNY   68  45  42 N5        30.06S
DRYDEN         PTSUNNY   72  55  56 NE9       30.04F
KENORA         CLOUDY    75  55  50 N8G18     30.08F
$$
                *** MANITOBA***

CITY           SKY/WX    TMP DP  RH WIND       PRES   REMARKS
BRANDON        PTSUNNY   75  52  43 NW7       30.18F
DAUPHIN        SUNNY     77  54  44 NW7       30.16F
ISLAND LAKE    PTSUNNY   73  57  56 S6        30.09S
PILOT MOUND      N/A     72  50  46 NW5         N/A
THE PAS        MOSUNNY   81  55  41 W2        30.12F
THOMPSON       MOSUNNY   77  59  53 CALM      30.09F
WINNIPEG       MOSUNNY   77  55  47 NW9G18    30.14S
LYNN LAKE      MOSUNNY   82  48  30 N7        30.11F
CHURCHILL      SUNNY     61  54  77 NE9       30.14F
GILLAM         SUNNY     70  55  60 NE7       30.12F
$$
                ***SASKATCHEWAN***

CITY           SKY/WX    TMP DP  RH WIND       PRES   REMARKS
ESTEVAN        MOSUNNY   77  61  57 W6        30.20F
KINDERSLEY     MOSUNNY   79  63  57 SE12G17   30.20F
LLOYDMINSTER   MOSUNNY   81  59  47 SE14G21   30.18F
PRINCE ALBERT  MOSUNNY   79  64  61 SW3       30.19F
REGINA         MOSUNNY   77  59  53 N8        30.21F


USA.gov is the U.S. government's official web portal to all federal, state and local government web resources and services.